Date,TemperatureHighF,TemperatureAvgF,TemperatureLowF,DewpointHighF,DewpointAvgF,DewpointLowF,HumidityHigh,HumidityAvg,HumidityLow,PressureMaxIn,PressureMinIn,WindSpeedMaxMPH,WindSpeedAvgMPH,GustSpeedMaxMPH,PrecipitationSumIn
2013-5-1,70.9,56.8,42.6,46.0,36.1,28.2,59,47,33,30.61,30.45,10,2,10,0.00
2013-5-2,77.4,60.9,46.2,45.6,41.2,36.4,73,51,29,30.59,30.40,9,2,9,0.00
2013-5-3,71.4,57.9,48.6,45.0,38.6,33.6,67,49,33,30.60,30.46,7,2,7,0.00
2013-5-4,73.4,57.1,43.9,48.1,41.2,34.8,80,57,37,30.50,30.34,8,2,8,0.00
2013-5-5,70.2,50.5,38.1,46.3,37.4,31.2,80,63,39,30.44,30.33,8,2,8,0.00
2013-5-6,73.8,62.8,45.7,53.1,48.2,39.2,81,60,47,30.41,30.26,10,2,10,0.00
2013-5-7,77.4,58.0,47.1,57.1,47.2,40.6,83,69,44,30.31,30.22,8,1,8,0.00
2013-5-8,63.0,60.9,58.8,57.9,56.3,54.3,85,85,83,30.16,30.12,4,0,4,0.21
2013-5-9,68.4,60.3,54.7,60.5,55.6,51.1,89,85,74,30.14,29.99,4,0,4,0.17
2013-5-10,81.7,66.1,52.3,63.1,55.9,49.7,93,72,47,30.12,30.00,8,1,8,0.00
2013-5-11,67.6,63.4,60.6,61.9,58.0,53.3,88,83,70,30.00,29.81,10,2,10,0.26
2013-5-12,70.3,61.3,50.0,57.9,47.2,28.2,90,64,28,30.00,29.73,9,2,9,0.04
2013-5-13,59.4,49.6,42.3,34.0,30.7,28.1,61,49,33,30.20,30.00,10,2,10,0.00
2013-5-14,62.2,49.6,36.7,35.3,30.4,27.7,72,50,30,30.21,30.13,7,1,7,0.00
2013-5-15,67.8,52.1,36.1,53.4,40.6,28.2,78,65,48,30.21,29.83,9,1,9,0.00
2013-5-16,83.7,65.4,47.3,54.6,46.0,40.9,88,56,23,29.90,29.75,7,1,7,0.00
2013-5-17,72.1,61.8,52.0,48.6,41.4,37.7,67,49,32,30.32,29.89,5,1,5,0.00
2013-5-18,77.7,61.2,45.9,51.9,44.8,37.3,72,56,37,30.44,30.32,10,2,10,0.00
2013-5-19,62.6,57.6,51.8,54.9,51.2,44.1,86,79,72,30.49,30.32,5,0,5,0.04
2013-5-20,85.8,69.6,57.2,68.5,61.0,53.0,89,76,54,30.32,30.03,8,1,8,0.01
2013-5-21,93.9,76.5,62.6,73.5,65.8,58.7,88,71,50,30.08,29.95,10,2,10,0.00
2013-5-22,86.0,69.4,56.8,71.4,61.6,52.4,90,77,60,30.11,29.93,8,2,8,0.16
2013-5-23,75.6,68.1,64.2,69.3,63.9,61.7,93,87,78,30.01,29.88,10,2,10,1.15
2013-5-24,68.9,58.5,45.5,65.8,54.9,42.6,94,88,74,30.01,29.75,8,2,8,0.27
2013-5-25,48.2,45.3,43.7,45.1,42.2,39.8,92,89,85,30.01,29.93,9,2,9,0.31
2013-5-26,62.4,50.9,43.9,43.5,40.4,38.2,86,68,44,30.27,29.96,9,3,9,0.00
2013-5-27,75.9,58.0,39.2,48.4,42.4,34.8,89,60,33,30.31,30.19,8,1,8,0.00
2013-5-28,79.0,60.8,46.4,54.5,48.6,39.8,83,66,38,30.36,30.25,0,0,0,0.04
2013-5-29,85.5,70.1,58.1,71.3,61.9,53.6,87,76,61,30.26,30.07,0,0,0,0.03
2013-5-30,94.8,78.9,63.3,71.9,66.1,59.4,90,68,43,30.26,30.12,0,0,0,0.00
2013-5-31,96.4,80.9,66.2,72.7,66.0,61.0,87,63,36,30.22,30.07,0,0,0,0.00